| time (UTC) | temp C | wind direction | speed KPH | gust KPH | rain 1hr cm | rain 24hr cm | rain mn cm | humidity % | barometer mb |
| 20260906114541 | -17 | 0.0 | 0.0 | 0.00 | 0.00 | 0.00 | 1016.1 | ||
| 20260906113030 | -17 | 0.0 | 0.0 | 0.00 | 0.00 | 0.00 | 1015.8 | ||
| 20260906111530 | -17 | 0.0 | 0.0 | 0.00 | 0.00 | 0.00 | 1015.6 | ||
| 20260906110020 | -17 | 0.0 | 0.0 | 0.00 | 0.00 | 0.00 | 1015.2 | ||
| 20260906104513 | -17 | 0.0 | 0.0 | 0.00 | 0.00 | 0.00 | 1015.2 | ||
| 20260906103013 | -17 | 0.0 | 0.0 | 0.00 | 0.00 | 0.00 | 1015.0 | ||
| 20260906101536 | -17 | 51 | 0.0 | 1.6 | 0.00 | 0.00 | 0.00 | 1014.8 | |
| 20260906100035 | 20 | 62 | 0.0 | 3.2 | 0.00 | 0.00 | 0.00 | 91 | 1014.8 |
| 20260906094502 | 20 | 62 | 0.0 | 3.2 | 0.00 | 0.00 | 0.00 | 91 | 1014.9 |
| 20260906093059 | 20 | 51 | 0.0 | 0.0 | 0.00 | 0.00 | 0.00 | 91 | 1014.7 |
| 20260906091556 | 21 | 51 | 0.0 | 3.2 | 0.00 | 0.00 | 0.00 | 91 | 1014.6 |
| 20260906090055 | 21 | 58 | 0.0 | 0.0 | 0.00 | 0.00 | 0.00 | 90 | 1014.6 |
| 20260906084556 | 21 | 58 | 0.0 | 0.0 | 0.00 | 0.00 | 0.00 | 90 | 1014.5 |
| 20260906083051 | 21 | 58 | 0.0 | 0.0 | 0.00 | 0.00 | 0.00 | 90 | 1014.6 |
| 20260906081548 | 21 | 58 | 0.0 | 1.6 | 0.00 | 0.00 | 0.00 | 90 | 1014.7 |
| 20260906080048 | 21 | 62 | 0.0 | 1.6 | 0.00 | 0.00 | 0.00 | 89 | 1014.7 |
| 20260906074545 | 22 | 59 | 0.0 | 4.8 | 0.00 | 0.00 | 0.00 | 89 | 1014.8 |
| 20260906073044 | 22 | 66 | 1.6 | 4.8 | 0.00 | 0.00 | 0.00 | 89 | 1014.8 |
| 20260906071541 | 22 | 81 | 0.0 | 6.4 | 0.00 | 0.00 | 0.00 | 89 | 1014.7 |
| 20260906070040 | 22 | 91 | 1.6 | 6.4 | 0.00 | 0.00 | 0.00 | 89 | 1014.7 |
| 20260906064540 | 22 | 70 | 1.6 | 8.0 | 0.00 | 0.00 | 0.00 | 89 | 1014.8 |
| 20260906063039 | 22 | 58 | 1.6 | 11.3 | 0.00 | 0.00 | 0.00 | 89 | 1014.8 |
| 20260906061540 | 22 | 4 | 3.2 | 9.7 | 0.00 | 0.00 | 0.00 | 89 | 1014.8 |
| 20260906060038 | 22 | 43 | 4.8 | 11.3 | 0.00 | 0.00 | 0.00 | 89 | 1014.8 |
| 20260906054537 | 22 | 84 | 1.6 | 9.7 | 0.00 | 0.00 | 0.00 | 90 | 1014.6 |
| 20260906053030 | 22 | 80 | 6.4 | 12.9 | 0.00 | 0.00 | 0.00 | 89 | 1014.3 |
| 20260906051600 | 22 | 47 | 4.8 | 9.7 | 0.00 | 0.00 | 0.00 | 89 | 1014.2 |
| 20260906050057 | 22 | 224 | 3.2 | 9.7 | 0.00 | 0.00 | 0.00 | 90 | 1014.1 |
| 20260906044555 | 22 | 63 | 3.2 | 9.7 | 0.00 | 0.00 | 0.00 | 89 | 1014.0 |
| 20260906043052 | 22 | 37 | 6.4 | 17.7 | 0.00 | 0.00 | 0.00 | 89 | 1013.8 |
| 20260906041550 | 22 | 359 | 4.8 | 17.7 | 0.00 | 0.00 | 0.00 | 89 | 1013.8 |
| 20260906040049 | 22 | 14 | 6.4 | 16.1 | 0.00 | 0.00 | 0.00 | 88 | 1013.7 |
| 20260906034558 | 22 | 79 | 9.7 | 20.9 | 0.00 | 0.00 | 0.00 | 88 | 1013.6 |
| 20260906033046 | 22 | 76 | 9.7 | 25.7 | 0.00 | 0.00 | 0.00 | 88 | 1013.5 |
| 20260906031543 | 22 | 79 | 8.0 | 19.3 | 0.00 | 0.00 | 0.00 | 88 | 1013.5 |
| 20260906030044 | 22 | 83 | 6.4 | 17.7 | 0.00 | 0.00 | 0.00 | 88 | 1013.4 |
| 20260906024540 | 22 | 72 | 3.2 | 9.7 | 0.00 | 0.00 | 0.00 | 88 | 1013.4 |
| 20260906023037 | 22 | 99 | 6.4 | 19.3 | 0.00 | 0.00 | 0.00 | 88 | 1013.6 |
| 20260906021541 | 22 | 78 | 1.6 | 9.7 | 0.00 | 0.00 | 0.00 | 88 | 1013.6 |
| 20260906020036 | 22 | 333 | 3.2 | 14.5 | 0.00 | 0.00 | 0.00 | 88 | 1013.7 |
| 20260906014532 | 22 | 42 | 1.6 | 11.3 | 0.00 | 0.00 | 0.00 | 87 | 1013.6 |
| 20260906013031 | 22 | 60 | 3.2 | 12.9 | 0.00 | 0.00 | 0.00 | 87 | 1013.4 |
| 20260906011529 | 22 | 311 | 1.6 | 11.3 | 0.00 | 0.00 | 0.00 | 88 | 1013.2 |
| 20260906010026 | 22 | 86 | 3.2 | 12.9 | 0.00 | 0.00 | 0.00 | 87 | 1013.0 |
| 20260906004523 | 22 | 347 | 1.6 | 19.3 | 0.00 | 0.00 | 0.00 | 87 | 1012.9 |
| 20260906003021 | 22 | 88 | 1.6 | 9.7 | 0.00 | 0.00 | 0.00 | 86 | 1012.8 |
| 20260906001539 | 22 | 35 | 3.2 | 16.1 | 0.00 | 0.00 | 0.00 | 86 | 1012.9 |
| 20260906000019 | 22 | 68 | 3.2 | 8.0 | 0.00 | 0.00 | 0.00 | 86 | 1012.8 |
| 20260905234515 | 22 | 77 | 6.4 | 19.3 | 0.00 | 0.00 | 0.00 | 87 | 1012.7 |
| 20260905233015 | 23 | 77 | 4.8 | 22.5 | 0.00 | 0.00 | 0.00 | 86 | 1012.6 |
| 20260905231515 | 23 | 219 | 1.6 | 12.9 | 0.00 | 0.00 | 0.00 | 84 | 1012.4 |
| 20260905230007 | 23 | 86 | 8.0 | 22.5 | 0.00 | 0.00 | 0.00 | 84 | 1012.3 |
| 20260905224502 | 24 | 69 | 4.8 | 19.3 | 0.00 | 0.00 | 0.00 | 83 | 1012.2 |
| 20260905223100 | 24 | 85 | 8.0 | 14.5 | 0.00 | 0.00 | 0.00 | 82 | 1012.3 |
| 20260905221602 | 25 | 64 | 4.8 | 11.3 | 0.00 | 0.00 | 0.00 | 81 | 1012.3 |
| 20260905220059 | 25 | 91 | 8.0 | 11.3 | 0.00 | 0.00 | 0.00 | 82 | 1012.3 |
| 20260905214557 | 24 | 63 | 0.0 | 12.9 | 0.00 | 0.00 | 0.00 | 84 | 1012.3 |
| 20260905213053 | 25 | 82 | 0.0 | 9.7 | 0.00 | 0.00 | 0.00 | 83 | 1012.0 |
| 20260905211552 | 25 | 269 | 3.2 | 11.3 | 0.00 | 0.00 | 0.00 | 82 | 1012.1 |
| 20260905210107 | 25 | 69 | 3.2 | 14.5 | 0.00 | 0.00 | 0.00 | 81 | 1012.0 |
| 20260905204548 | 25 | 65 | 4.8 | 16.1 | 0.00 | 0.00 | 0.00 | 80 | 1011.9 |
| 20260905203046 | 25 | 63 | 3.2 | 14.5 | 0.00 | 0.00 | 0.00 | 81 | 1012.1 |
| 20260905201544 | 26 | 302 | 3.2 | 16.1 | 0.00 | 0.00 | 0.00 | 80 | 1012.1 |
| 20260905200108 | 27 | 296 | 3.2 | 14.5 | 0.00 | 0.00 | 0.00 | 78 | 1012.1 |
| 20260905194539 | 27 | 71 | 8.0 | 19.3 | 0.00 | 0.00 | 0.00 | 75 | 1012.1 |
| 20260905193016 | 27 | 60 | 6.4 | 14.5 | 0.00 | 0.00 | 0.00 | 75 | 1012.1 |
| 20260905191508 | 27 | 327 | 3.2 | 17.7 | 0.00 | 0.00 | 0.00 | 77 | 1012.3 |
| 20260905190005 | 27 | 96 | 8.0 | 20.9 | 0.00 | 0.00 | 0.00 | 75 | 1012.1 |
| 20260905184504 | 27 | 309 | 3.2 | 17.7 | 0.00 | 0.00 | 0.00 | 77 | 1012.2 |
| 20260905183002 | 27 | 28 | 6.4 | 17.7 | 0.00 | 0.00 | 0.00 | 76 | 1012.1 |
| 20260905181600 | 27 | 81 | 6.4 | 14.5 | 0.00 | 0.00 | 0.00 | 73 | 1012.0 |
| 20260905180056 | 28 | 350 | 6.4 | 14.5 | 0.00 | 0.00 | 0.00 | 72 | 1012.1 |
| 20260905174555 | 28 | 49 | 3.2 | 12.9 | 0.00 | 0.00 | 0.00 | 71 | 1012.1 |
| 20260905173054 | 28 | 71 | 3.2 | 14.5 | 0.00 | 0.00 | 0.00 | 72 | 1012.0 |
| 20260905171550 | 28 | 88 | 8.0 | 17.7 | 0.00 | 0.00 | 0.00 | 75 | 1012.0 |
| 20260905170045 | 28 | 71 | 6.4 | 17.7 | 0.00 | 0.00 | 0.00 | 76 | 1012.1 |
| 20260905164545 | 29 | 297 | 4.8 | 12.9 | 0.00 | 0.00 | 0.00 | 70 | 1012.1 |
| 20260905163042 | 28 | 80 | 3.2 | 11.3 | 0.00 | 0.00 | 0.00 | 75 | 1012.2 |
| 20260905161542 | 28 | 49 | 4.8 | 12.9 | 0.00 | 0.00 | 0.00 | 76 | 1012.1 |
| 20260905160040 | 28 | 84 | 3.2 | 12.9 | 0.00 | 0.00 | 0.00 | 76 | 1012.1 |
| 20260905154540 | 28 | 56 | 4.8 | 14.5 | 0.00 | 0.00 | 0.00 | 77 | 1011.9 |
| 20260905153039 | 28 | 94 | 1.6 | 11.3 | 0.00 | 0.00 | 0.00 | 78 | 1011.9 |
| 20260905151538 | 28 | 276 | 3.2 | 16.1 | 0.00 | 0.00 | 0.00 | 77 | 1011.8 |
| 20260905150037 | 28 | 62 | 4.8 | 11.3 | 0.00 | 0.00 | 0.00 | 79 | 1011.7 |
| 20260905144544 | 27 | 12 | 1.6 | 14.5 | 0.00 | 0.00 | 0.00 | 81 | 1011.5 |
| 20260905143037 | 27 | 15 | 1.6 | 9.7 | 0.00 | 0.00 | 0.00 | 83 | 1011.3 |
| 20260905141534 | 28 | 72 | 1.6 | 6.4 | 0.00 | 0.00 | 0.00 | 81 | 1011.2 |
| 20260905140034 | 27 | 58 | 3.2 | 6.4 | 0.00 | 0.00 | 0.00 | 82 | 1011.1 |
| 20260905134537 | 27 | 354 | 3.2 | 8.0 | 0.00 | 0.00 | 0.00 | 84 | 1011.4 |
| 20260905133028 | 26 | 99 | 1.6 | 6.4 | 0.00 | 0.00 | 0.00 | 85 | 1011.4 |
| 20260905131527 | 25 | 314 | 0.0 | 4.8 | 0.00 | 0.00 | 0.00 | 88 | 1011.1 |
| 20260905130024 | 25 | 92 | 0.0 | 4.8 | 0.00 | 0.00 | 0.00 | 89 | 1011.0 |
| 20260905124524 | 25 | 68 | 0.0 | 8.0 | 0.00 | 0.00 | 0.00 | 89 | 1010.8 |
| 20260905123051 | 25 | 56 | 0.0 | 4.8 | 0.00 | 0.00 | 0.00 | 90 | 1010.8 |
| 20260905121520 | 24 | 22 | 0.0 | 3.2 | 0.00 | 0.00 | 0.00 | 90 | 1010.6 |
| 20260905120049 | -17 | 0.0 | 0.0 | 0.00 | 0.00 | 0.00 | 1010.4 |